�������l�o���
Date,Time,MP-1(��Sv/h),MP-2(��Sv/h),MP-3(��Sv/h),MP-4(��Sv/h),MP-5(��Sv/h),MP-6(��Sv/h),MP-7(��Sv/h),MP-8(��Sv/h),����,����(m/s),���J
2020/07/27,00:00,0.645,0.927,0.586,1.119,0.807,0.387,0.662,0.623,�k�k��,2.6,�L
2020/07/27,00:10,0.648,0.924,0.586,1.119,0.805,0.387,0.664,0.623,�k�k��,2.6,�L
2020/07/27,00:20,0.645,0.925,0.586,1.118,0.805,0.386,0.664,0.623,�k�k��,1.7,��
2020/07/27,00:30,0.646,0.925,0.585,1.119,0.806,0.388,0.663,0.621,�k��,1.1,�L
2020/07/27,00:40,0.644,0.926,0.584,1.118,0.804,0.388,0.663,0.622,�k��,0.9,�L
2020/07/27,00:50,0.645,0.922,0.585,1.118,0.801,0.387,0.664,0.624,�k�k��,0.6,�L
2020/07/27,01:00,0.644,0.924,0.585,1.119,0.803,0.388,0.664,0.623,���k��,0.8,�L
2020/07/27,01:10,0.644,0.925,0.586,1.117,0.804,0.387,0.664,0.623,�k��,0.9,�L
2020/07/27,01:20,0.645,0.926,0.586,1.117,0.802,0.387,0.664,0.624,���k��,0.8,�L
2020/07/27,01:30,0.644,0.925,0.585,1.118,0.802,0.388,0.663,0.623,�k,0.6,�L
2020/07/27,01:40,0.646,0.925,0.586,1.118,0.805,0.389,0.664,0.625,�k�k��,1.1,�L
2020/07/27,01:50,0.648,0.923,0.585,1.120,0.805,0.387,0.662,0.624,�k��,0.6,��
2020/07/27,02:00,0.646,0.924,0.586,1.119,0.804,0.390,0.663,0.626,-,CALM,�L
2020/07/27,02:10,0.645,0.925,0.586,1.119,0.804,0.388,0.663,0.625,�쓌,1.2,�L
2020/07/27,02:20,0.649,0.924,0.585,1.119,0.804,0.388,0.663,0.624,-,CALM,�L
2020/07/27,02:30,0.647,0.925,0.585,1.118,0.805,0.389,0.665,0.624,���k��,1.1,�L
2020/07/27,02:40,0.646,0.923,0.585,1.116,0.803,0.389,0.663,0.623,-,CALM,�L
2020/07/27,02:50,0.646,0.924,0.584,1.117,0.803,0.387,0.663,0.623,-,CALM,�L
2020/07/27,03:00,0.648,0.924,0.584,1.118,0.801,0.387,0.664,0.623,�k,0.9,��
2020/07/27,03:10,0.645,0.922,0.585,1.118,0.804,0.389,0.663,0.623,�k��,0.9,��
2020/07/27,03:20,0.647,0.921,0.583,1.117,0.803,0.387,0.664,0.622,-,CALM,��
2020/07/27,03:30,0.648,0.924,0.586,1.118,0.807,0.388,0.663,0.623,-,CALM,��
2020/07/27,03:40,0.644,0.923,0.585,1.118,0.803,0.388,0.662,0.624,-,CALM,��
2020/07/27,03:50,0.645,0.920,0.585,1.116,0.805,0.388,0.664,0.624,�k,0.6,��
2020/07/27,04:00,0.647,0.923,0.586,1.115,0.804,0.389,0.663,0.623,�k��,1.2,��
2020/07/27,04:10,0.646,0.922,0.585,1.117,0.806,0.390,0.663,0.624,�k��,0.6,��
2020/07/27,04:20,0.648,0.923,0.587,1.115,0.804,0.389,0.663,0.623,��,1.1,��
2020/07/27,04:30,0.647,0.923,0.585,1.117,0.803,0.388,0.664,0.624,��,0.6,��
2020/07/27,04:40,0.645,0.922,0.585,1.116,0.801,0.390,0.663,0.623,-,CALM,��
2020/07/27,04:50,0.646,0.923,0.586,1.116,0.806,0.389,0.663,0.624,-,CALM,��
2020/07/27,05:00,0.646,0.923,0.584,1.116,0.805,0.388,0.663,0.623,�k��,0.8,��
2020/07/27,05:10,0.646,0.925,0.586,1.117,0.805,0.388,0.663,0.623,�쓌,0.9,��
2020/07/27,05:20,0.648,0.923,0.585,1.120,0.801,0.388,0.665,0.624,�쓌,0.9,��
2020/07/27,05:30,0.649,0.923,0.586,1.117,0.804,0.390,0.663,0.625,��쐼,0.6,��
2020/07/27,05:40,0.647,0.925,0.583,1.118,0.805,0.389,0.664,0.622,��,2.2,��
2020/07/27,05:50,0.646,0.924,0.585,1.118,0.804,0.389,0.665,0.621,��,2.6,��
2020/07/27,06:00,0.646,0.921,0.584,1.118,0.806,0.389,0.663,0.623,��,2.0,��
2020/07/27,06:10,0.647,0.924,0.586,1.119,0.803,0.389,0.662,0.625,��,2.6,��
2020/07/27,06:20,0.647,0.922,0.586,1.115,0.804,0.388,0.663,0.623,��쐼,2.0,��
2020/07/27,06:30,0.647,0.923,0.584,1.118,0.804,0.387,0.663,0.622,��쐼,1.7,��
2020/07/27,06:40,0.647,0.921,0.585,1.119,0.802,0.387,0.662,0.621,��,1.7,��
2020/07/27,06:50,0.646,0.920,0.585,1.117,0.803,0.388,0.663,0.624,��,1.1,��
2020/07/27,07:00,0.648,0.922,0.585,1.117,0.803,0.387,0.663,0.624,��,0.8,��
2020/07/27,07:10,0.647,0.923,0.584,1.114,0.804,0.387,0.662,0.623,�k�k��,0.6,��
2020/07/27,07:20,0.647,0.922,0.583,1.118,0.803,0.388,0.662,0.622,-,CALM,��
2020/07/27,07:30,0.646,0.923,0.586,1.117,0.804,0.388,0.662,0.624,-,CALM,��
2020/07/27,07:40,0.648,0.921,0.586,1.116,0.804,0.389,0.662,0.623,�k��,0.8,��
2020/07/27,07:50,0.645,0.924,0.586,1.118,0.805,0.388,0.662,0.622,�k�k��,0.9,��
2020/07/27,08:00,0.648,0.921,0.584,1.119,0.804,0.388,0.663,0.622,�k��,1.2,��
2020/07/27,08:10,0.646,0.922,0.585,1.118,0.803,0.387,0.662,0.623,���k��,1.9,��
2020/07/27,08:20,0.646,0.924,0.584,1.117,0.804,0.388,0.661,0.622,���k��,2.3,��
2020/07/27,08:30,0.646,0.922,0.583,1.116,0.804,0.387,0.662,0.623,���k��,2.0,��
2020/07/27,08:40,0.647,0.920,0.585,1.116,0.803,0.390,0.662,0.623,�k��,2.8,��
2020/07/27,08:50,0.646,0.923,0.583,1.116,0.804,0.389,0.662,0.623,�k��,1.7,��
2020/07/27,09:00,0.646,0.921,0.585,1.118,0.805,0.390,0.664,0.622,�k��,1.5,��
2020/07/27,09:10,0.648,0.919,0.583,1.116,0.803,0.388,0.663,0.623,�k��,1.4,��
2020/07/27,09:20,0.647,0.917,0.584,1.115,0.803,0.390,0.663,0.623,�k�k��,1.7,��
2020/07/27,09:30,0.649,0.923,0.583,1.117,0.806,0.389,0.662,0.623,�k�k��,2.2,��
2020/07/27,09:40,0.647,0.923,0.584,1.117,0.805,0.389,0.664,0.623,�k�k��,1.5,��
2020/07/27,09:50,0.648,0.921,0.582,1.117,0.805,0.390,0.664,0.623,-,CALM,��
2020/07/27,10:00,0.651,0.918,0.583,1.116,0.806,0.389,0.663,0.623,��,1.5,��
2020/07/27,10:10,0.648,0.921,0.586,1.121,0.806,0.389,0.665,0.624,���k��,1.9,��
2020/07/27,10:20,0.649,0.921,0.584,1.119,0.806,0.390,0.665,0.623,���k��,1.7,��
2020/07/27,10:30,0.648,0.922,0.585,1.119,0.809,0.390,0.665,0.623,��,1.5,��
2020/07/27,10:40,0.650,0.924,0.585,1.115,0.808,0.391,0.664,0.623,���쓌,0.9,��
2020/07/27,10:50,0.650,0.923,0.585,1.115,0.807,0.390,0.664,0.626,�쓌,0.9,��
2020/07/27,11:00,0.649,0.920,0.586,1.117,0.805,0.390,0.664,0.624,���쓌,0.9,��
2020/07/27,11:10,0.649,0.924,0.587,1.116,0.806,0.390,0.664,0.623,�쓌,2.0,��
2020/07/27,11:20,0.649,0.925,0.586,1.118,0.806,0.389,0.666,0.624,�쓌,4.0,�L
2020/07/27,11:30,0.650,0.927,0.584,1.119,0.808,0.391,0.665,0.623,��,0.6,��
2020/07/27,11:40,0.649,0.925,0.584,1.120,0.807,0.390,0.664,0.624,��쓌,1.1,��
2020/07/27,11:50,0.649,0.927,0.587,1.116,0.808,0.390,0.666,0.624,�쓌,0.8,��
2020/07/27,12:00,0.649,0.929,0.586,1.118,0.808,0.391,0.664,0.624,�쓌,1.1,�L
2020/07/27,12:10,0.650,0.927,0.586,1.116,0.806,0.391,0.665,0.623,-,CALM,�L
2020/07/27,12:20,0.647,0.927,0.585,1.121,0.808,0.391,0.666,0.626,�k,1.2,�L
2020/07/27,12:30,0.648,0.926,0.587,1.122,0.808,0.390,0.665,0.623,�k,2.3,�L
2020/07/27,12:40,0.648,0.925,0.587,1.122,0.808,0.389,0.664,0.623,�k�k��,3.5,�L
2020/07/27,12:50,0.647,0.923,0.585,1.120,0.807,0.389,0.664,0.624,�k�k��,3.6,�L
2020/07/27,13:00,0.646,0.921,0.584,1.122,0.806,0.389,0.663,0.623,�k��,1.5,�L
2020/07/27,13:10,0.646,0.919,0.583,1.118,0.801,0.389,0.662,0.623,���k��,1.5,�L
2020/07/27,13:20,0.646,0.919,0.583,1.120,0.804,0.389,0.664,0.623,�쓌,0.9,��
2020/07/27,13:30,0.646,0.921,0.582,1.118,0.803,0.389,0.663,0.623,-,CALM,��
2020/07/27,13:40,0.646,0.922,0.584,1.116,0.806,0.389,0.663,0.624,-,CALM,��
2020/07/27,13:50,0.644,0.921,0.585,1.119,0.802,0.389,0.663,0.622,��,1.2,�L
2020/07/27,14:00,0.647,0.918,0.584,1.117,0.803,0.388,0.663,0.623,�k��,1.9,�L
2020/07/27,14:10,0.644,0.919,0.586,1.117,0.803,0.389,0.663,0.622,�k�k��,0.9,�L
2020/07/27,14:20,0.645,0.918,0.585,1.118,0.803,0.391,0.664,0.622,���k��,0.6,�L
2020/07/27,14:30,0.643,0.915,0.583,1.117,0.801,0.388,0.663,0.623,��,1.2,�L
2020/07/27,14:40,0.645,0.917,0.582,1.116,0.801,0.390,0.661,0.622,���k��,0.8,�L
2020/07/27,14:50,0.643,0.914,0.580,1.115,0.800,0.388,0.663,0.621,-,CALM,�L
2020/07/27,15:00,0.642,0.913,0.580,1.113,0.799,0.389,0.661,0.622,��쓌,0.9,�L
2020/07/27,15:10,0.642,0.910,0.578,1.115,0.800,0.389,0.662,0.621,��,0.9,�L
2020/07/27,15:20,0.640,0.913,0.579,1.111,0.799,0.389,0.661,0.621,��쓌,0.8,�L
2020/07/27,15:30,0.641,0.913,0.578,1.113,0.798,0.387,0.662,0.622,��,0.6,�L
2020/07/27,15:40,0.642,0.914,0.581,1.112,0.799,0.387,0.661,0.622,��,0.6,�L
2020/07/27,15:50,0.642,0.916,0.579,1.111,0.798,0.387,0.659,0.622,�k��,0.8,�L
2020/07/27,16:00,0.641,0.916,0.581,1.113,0.799,0.388,0.661,0.622,�k,0.6,�L
2020/07/27,16:10,0.644,0.917,0.581,1.114,0.798,0.390,0.661,0.622,�k��,1.4,��
2020/07/27,16:20,0.643,0.919,0.581,1.114,0.799,0.389,0.660,0.622,���k��,1.5,��
2020/07/27,16:30,0.643,0.918,0.581,1.112,0.800,0.389,0.661,0.623,���k��,1.4,��
2020/07/27,16:40,0.644,0.918,0.582,1.113,0.800,0.389,0.661,0.621,�k��,2.0,��
2020/07/27,16:50,0.645,0.918,0.583,1.112,0.799,0.389,0.660,0.624,�k�k��,2.8,��
2020/07/27,17:00,0.642,0.917,0.583,1.113,0.796,0.388,0.661,0.623,�k�k��,4.3,�L
2020/07/27,17:10,0.643,0.918,0.582,1.112,0.800,0.389,0.663,0.622,�k�k��,4.3,�L
2020/07/27,17:20,0.644,0.920,0.582,1.115,0.799,0.389,0.663,0.622,�k�k��,4.5,�L
2020/07/27,17:30,0.644,0.918,0.582,1.113,0.801,0.391,0.661,0.622,�k�k��,3.9,�L
2020/07/27,17:40,0.644,0.918,0.583,1.115,0.800,0.390,0.663,0.624,�k�k��,3.8,�L
2020/07/27,17:50,0.644,0.917,0.582,1.116,0.801,0.390,0.661,0.623,�k��,3.2,�L
2020/07/27,18:00,0.645,0.921,0.583,1.116,0.802,0.388,0.662,0.623,���k��,2.0,�L
2020/07/27,18:10,0.645,0.921,0.582,1.115,0.803,0.389,0.661,0.624,�k��,2.0,�L
2020/07/27,18:20,0.645,0.920,0.581,1.115,0.802,0.389,0.662,0.624,�k��,1.7,�L
2020/07/27,18:30,0.644,0.919,0.583,1.114,0.801,0.390,0.664,0.623,��,1.2,�L
2020/07/27,18:40,0.644,0.917,0.581,1.114,0.802,0.391,0.662,0.623,���쐼,1.4,�L
2020/07/27,18:50,0.646,0.916,0.580,1.113,0.801,0.390,0.662,0.624,�쐼,1.5,�L
2020/07/27,19:00,0.645,0.917,0.580,1.113,0.799,0.390,0.662,0.622,�쐼,1.4,�L
2020/07/27,19:10,0.643,0.915,0.582,1.114,0.801,0.389,0.662,0.623,��쐼,1.2,�L
2020/07/27,19:20,0.644,0.915,0.583,1.114,0.802,0.390,0.662,0.624,�쐼,0.9,�L
2020/07/27,19:30,0.644,0.917,0.581,1.114,0.799,0.390,0.661,0.622,���쐼,0.8,�L
2020/07/27,19:40,0.646,0.917,0.583,1.114,0.800,0.390,0.661,0.622,��쐼,1.2,�L
2020/07/27,19:50,0.644,0.917,0.583,1.115,0.800,0.390,0.663,0.623,��,1.7,�L
2020/07/27,20:00,0.643,0.915,0.583,1.114,0.799,0.391,0.662,0.622,��쓌,1.5,�L
2020/07/27,20:10,0.642,0.916,0.582,1.111,0.798,0.388,0.661,0.621,���쓌,2.3,�L
2020/07/27,20:20,0.642,0.917,0.582,1.110,0.797,0.388,0.661,0.623,��,2.6,�L
2020/07/27,20:30,0.639,0.909,0.579,1.108,0.794,0.388,0.660,0.621,���쓌,2.3,�L
2020/07/27,20:40,0.639,0.908,0.578,1.108,0.795,0.387,0.660,0.620,���쓌,2.2,�L
2020/07/27,20:50,0.638,0.909,0.578,1.106,0.790,0.387,0.659,0.619,���k��,1.5,�L
2020/07/27,21:00,0.638,0.905,0.575,1.105,0.790,0.387,0.658,0.619,��,2.0,�L
2020/07/27,21:10,0.640,0.907,0.577,1.105,0.791,0.387,0.656,0.619,��,1.2,�L
2020/07/27,21:20,0.636,0.907,0.577,1.103,0.790,0.387,0.657,0.619,���쓌,0.9,�L
2020/07/27,21:30,0.639,0.907,0.577,1.102,0.794,0.388,0.658,0.620,���쓌,2.2,�L
2020/07/27,21:40,0.635,0.901,0.577,1.104,0.792,0.388,0.656,0.619,�쓌,3.3,�L
2020/07/27,21:50,0.632,0.899,0.577,1.097,0.786,0.386,0.656,0.619,�쓌,4.1,�L
2020/07/27,22:00,0.636,0.901,0.577,1.100,0.788,0.387,0.654,0.619,�쓌,4.5,�L
2020/07/27,22:10,0.636,0.900,0.577,1.098,0.787,0.386,0.655,0.619,��쓌,3.4,�L
2020/07/27,22:20,0.637,0.903,0.575,1.099,0.789,0.386,0.655,0.619,��쓌,3.2,�L
2020/07/27,22:30,0.635,0.902,0.576,1.098,0.789,0.387,0.657,0.618,��,3.2,�L
2020/07/27,22:40,0.636,0.903,0.578,1.099,0.790,0.388,0.656,0.620,��,3.6,�L
2020/07/27,22:50,0.636,0.905,0.577,1.098,0.791,0.388,0.656,0.619,��,3.1,�L
2020/07/27,23:00,0.637,0.906,0.577,1.098,0.789,0.386,0.657,0.620,��,2.8,�L
2020/07/27,23:10,0.637,0.905,0.579,1.100,0.791,0.387,0.656,0.618,��,3.1,�L
2020/07/27,23:20,0.637,0.903,0.578,1.101,0.791,0.388,0.658,0.620,��,2.8,�L
2020/07/27,23:30,0.638,0.906,0.577,1.099,0.789,0.388,0.656,0.618,��,3.1,�L
2020/07/27,23:40,0.637,0.905,0.576,1.099,0.790,0.388,0.659,0.619,��,2.5,�L
2020/07/27,23:50,0.639,0.907,0.577,1.099,0.791,0.388,0.657,0.620,��,3.4,�L
